TimeEST,TemperatureF,Dew PointF,Humidity,Sea Level PressureIn,VisibilityMPH,Wind Direction,Wind SpeedMPH,Gust SpeedMPH,PrecipitationIn,Events,Conditions,WindDirDegrees,DateUTC
12:07 AM,53.6,48.2,82,29.11,2.5,SW,11.5,17.3,0.06,Rain,Heavy Rain,220,2013-01-31 05:07:00
12:12 AM,51.8,48.2,88,29.11,1.8,SW,12.7,20.7,0.11,Rain,Heavy Rain,220,2013-01-31 05:12:00
12:20 AM,51.8,48.2,88,29.11,3.0,SW,15.0,21.9,0.15,Rain,Heavy Rain,230,2013-01-31 05:20:00
12:56 AM,48.9,43.0,80,29.10,5.0,WSW,18.4,35.7,0.31,Rain,Rain,250,2013-01-31 05:56:00
1:09 AM,48.2,42.8,82,29.11,8.0,SW,16.1,26.5,0.02,Rain,Rain,230,2013-01-31 06:09:00
1:44 AM,46.4,39.2,76,29.12,5.0,SW,26.5,40.3,0.09,Rain,Heavy Rain,230,2013-01-31 06:44:00
1:56 AM,45.0,39.0,80,29.09,5.0,SW,16.1,43.7,0.13,Rain,Light Rain,220,2013-01-31 06:56:00
2:05 AM,44.6,39.2,81,29.08,10.0,SW,13.8,24.2,0.00,Rain,Light Rain,220,2013-01-31 07:05:00
2:29 AM,37.4,33.8,87,29.14,6.0,West,27.6,38.0,0.02,Rain,Rain,280,2013-01-31 07:29:00
2:56 AM,36.0,32.0,86,29.14,5.0,West,16.1,31.1,0.04,Snow,Light Snow,260,2013-01-31 07:56:00
3:44 AM,35.6,30.2,81,29.13,2.0,West,15.0,21.9,0.01,Snow,Light Snow,270,2013-01-31 08:44:00
3:46 AM,33.8,30.2,87,29.13,1.8,West,13.8,21.9,0.02,Snow,Light Snow,260,2013-01-31 08:46:00
3:56 AM,34.0,30.9,89,29.16,0.8,West,9.2,-,0.03,Snow,Light Snow,260,2013-01-31 08:56:00
4:12 AM,33.8,30.2,87,29.13,0.8,West,21.9,33.4,0.03,Snow,Light Snow,270,2013-01-31 09:12:00
4:23 AM,33.8,28.4,81,29.14,0.8,West,19.6,36.8,0.04,Snow,Light Snow,280,2013-01-31 09:23:00
4:30 AM,33.8,28.4,81,29.15,2.0,West,19.6,35.7,0.04,Snow,Light Snow,260,2013-01-31 09:30:00
4:37 AM,33.8,28.4,81,29.16,1.5,West,12.7,35.7,0.04,Snow,Light Snow,260,2013-01-31 09:37:00
4:43 AM,33.8,28.4,81,29.16,3.0,West,18.4,27.6,0.04,Snow,Light Snow,260,2013-01-31 09:43:00
4:56 AM,33.1,27.0,78,29.18,9.0,West,17.3,31.1,0.04,,Overcast,260,2013-01-31 09:56:00
5:02 AM,32.0,28.4,87,29.16,1.5,West,11.5,27.6,0.00,Snow,Light Snow,260,2013-01-31 10:02:00
5:04 AM,32.0,28.4,87,29.16,1.0,West,15.0,24.2,0.00,Snow,Light Snow,270,2013-01-31 10:04:00
5:11 AM,32.0,28.4,87,29.17,0.8,West,17.3,26.5,0.00,Snow,Light Snow,270,2013-01-31 10:11:00
5:19 AM,32.0,26.6,80,29.18,1.5,West,26.5,40.3,0.00,Snow,Light Snow,280,2013-01-31 10:19:00
5:24 AM,30.2,26.6,86,29.19,2.5,West,24.2,40.3,0.00,Snow,Light Snow,270,2013-01-31 10:24:00
5:32 AM,30.2,26.6,86,29.20,3.0,West,27.6,38.0,0.00,Snow,Light Snow,280,2013-01-31 10:32:00
5:43 AM,30.2,23.0,75,29.20,9.0,West,29.9,47.2,0.00,,Overcast,270,2013-01-31 10:43:00
5:56 AM,30.0,19.9,66,29.24,10.0,West,26.5,47.2,0.00,,Overcast,270,2013-01-31 10:56:00
6:43 AM,28.4,19.4,69,29.26,1.8,West,31.1,42.6,0.00,Snow,Light Snow,270,2013-01-31 11:43:00
6:48 AM,26.6,19.4,74,29.27,0.5,West,24.2,43.7,0.00,Snow,Snow,270,2013-01-31 11:48:00
6:56 AM,26.1,21.0,81,29.31,0.5,West,25.3,35.7,0.00,Snow,Snow,280,2013-01-31 11:56:00
7:01 AM,26.6,21.2,80,29.28,1.2,West,25.3,35.7,0.00,Snow,Light Snow,270,2013-01-31 12:01:00
7:05 AM,26.6,19.4,74,29.28,3.0,West,18.4,31.1,0.00,Snow,Light Snow,270,2013-01-31 12:05:00
7:11 AM,26.6,21.2,80,29.29,1.5,West,19.6,31.1,0.00,Snow,Light Snow,270,2013-01-31 12:11:00
7:20 AM,26.6,21.2,80,29.30,0.5,West,19.6,31.1,0.01,Snow,Snow,270,2013-01-31 12:20:00
7:33 AM,26.6,19.4,74,29.30,2.0,West,19.6,46.0,0.01,Snow,Light Snow,260,2013-01-31 12:33:00
7:39 AM,26.6,17.6,69,29.30,5.0,WSW,17.3,36.8,0.01,Snow,Light Snow,250,2013-01-31 12:39:00
7:52 AM,26.6,17.6,69,29.30,3.0,West,16.1,36.8,0.01,Snow,Light Snow,270,2013-01-31 12:52:00
7:56 AM,27.0,18.0,69,29.34,2.5,West,21.9,36.8,0.01,Snow,Light Snow,270,2013-01-31 12:56:00
8:02 AM,26.6,19.4,74,29.31,0.8,West,17.3,32.2,0.00,Snow,Light Snow,270,2013-01-31 13:02:00
8:11 AM,26.6,19.4,74,29.31,0.5,West,21.9,31.1,0.00,Snow,Snow,270,2013-01-31 13:11:00
8:18 AM,26.6,19.4,74,29.32,1.0,West,21.9,29.9,0.00,Snow,Light Snow,280,2013-01-31 13:18:00
8:28 AM,26.6,19.4,74,29.32,3.0,West,21.9,39.1,0.00,Snow,Light Snow,270,2013-01-31 13:28:00
8:41 AM,26.6,17.6,69,29.32,10.0,West,23.0,34.5,0.00,,Overcast,260,2013-01-31 13:41:00
8:56 AM,27.0,17.1,66,29.36,10.0,West,12.7,35.7,0.00,,Overcast,270,2013-01-31 13:56:00
9:07 AM,26.6,17.6,69,29.33,1.8,West,27.6,43.7,0.00,Snow,Light Snow,270,2013-01-31 14:07:00
9:39 AM,24.8,19.4,80,29.36,0.5,WNW,18.4,29.9,0.00,Snow,Snow,290,2013-01-31 14:39:00
9:48 AM,24.8,19.4,80,29.36,0.2,West,25.3,33.4,0.00,Snow,Heavy Snow,280,2013-01-31 14:48:00
9:54 AM,24.8,19.4,80,29.36,0.2,West,23.0,33.4,0.00,Snow,Heavy Snow,280,2013-01-31 14:54:00
9:56 AM,25.0,19.0,78,29.40,0.2,West,24.2,33.4,0.00,Snow,Heavy Snow,270,2013-01-31 14:56:00
10:00 AM,24.8,17.6,74,29.36,0.8,West,24.2,33.4,0.00,Snow,Light Snow,270,2013-01-31 15:00:00
10:07 AM,26.6,17.6,69,29.36,2.0,West,19.6,39.1,0.00,Snow,Light Snow,280,2013-01-31 15:07:00
10:13 AM,24.8,17.6,74,29.36,0.8,West,21.9,35.7,0.00,Snow,Light Snow,280,2013-01-31 15:13:00
10:22 AM,24.8,19.4,80,29.37,0.5,West,19.6,32.2,0.00,Snow,Snow,280,2013-01-31 15:22:00
10:33 AM,24.8,19.4,80,29.38,0.2,West,20.7,32.2,0.01,Snow,Heavy Snow,280,2013-01-31 15:33:00
10:53 AM,24.8,17.6,74,29.37,1.0,West,20.7,39.1,0.01,Snow,Light Snow,280,2013-01-31 15:53:00
10:56 AM,25.0,16.0,69,29.41,1.5,West,27.6,41.4,0.01,Snow,Light Snow,280,2013-01-31 15:56:00
11:03 AM,24.8,14.0,64,29.38,1.2,West,23.0,41.4,0.00,,Mostly Cloudy,270,2013-01-31 16:03:00
11:06 AM,24.8,12.2,59,29.38,2.5,West,31.1,44.9,0.00,,Mostly Cloudy,270,2013-01-31 16:06:00
11:13 AM,26.6,12.2,55,29.38,3.0,West,31.1,44.9,0.00,Snow,Blowing Snow,270,2013-01-31 16:13:00
11:25 AM,24.8,12.2,59,29.38,1.8,West,31.1,41.4,0.00,Snow,Blowing Snow,280,2013-01-31 16:25:00
11:35 AM,24.8,12.2,59,29.39,3.0,West,21.9,40.3,0.00,,Mostly Cloudy,270,2013-01-31 16:35:00
11:56 AM,25.0,10.9,55,29.44,10.0,West,20.7,31.1,0.00,,Mostly Cloudy,270,2013-01-31 16:56:00
12:14 PM,24.8,10.4,54,29.41,2.0,West,17.3,44.9,0.00,Snow,Light Snow,260,2013-01-31 17:14:00
12:22 PM,24.8,10.4,54,29.42,10.0,West,17.3,28.8,0.00,,Overcast,270,2013-01-31 17:22:00
12:38 PM,23.0,12.2,63,29.42,1.8,West,29.9,46.0,0.00,Snow,Light Snow,280,2013-01-31 17:38:00
12:49 PM,24.8,10.4,54,29.43,3.0,West,19.6,33.4,0.00,,Overcast,270,2013-01-31 17:49:00
12:56 PM,24.1,10.9,57,29.47,8.0,WSW,15.0,33.4,0.00,,Overcast,250,2013-01-31 17:56:00
1:56 PM,23.0,10.0,58,29.50,5.0,West,18.4,31.1,0.00,Snow,Light Snow,260,2013-01-31 18:56:00
1:59 PM,23.0,12.2,63,29.45,1.5,WSW,20.7,31.1,0.00,Snow,Light Snow,240,2013-01-31 18:59:00
2:05 PM,21.2,14.0,74,29.45,0.8,West,21.9,39.1,0.00,Snow,Light Snow,270,2013-01-31 19:05:00
2:11 PM,23.0,10.4,59,29.46,2.5,West,20.7,39.1,0.00,Snow,Light Snow,270,2013-01-31 19:11:00
2:14 PM,23.0,10.4,59,29.46,5.0,WSW,15.0,39.1,0.00,Snow,Light Snow,250,2013-01-31 19:14:00
2:17 PM,21.2,12.2,68,29.46,1.5,West,24.2,34.5,0.00,Snow,Light Snow,260,2013-01-31 19:17:00
2:30 PM,23.0,12.2,63,29.46,3.0,West,18.4,35.7,0.00,Snow,Light Snow,270,2013-01-31 19:30:00
2:41 PM,21.2,12.2,68,29.47,2.5,West,15.0,29.9,0.00,Snow,Light Snow,270,2013-01-31 19:41:00
2:48 PM,21.2,12.2,68,29.47,1.2,West,20.7,32.2,0.00,Snow,Light Snow,260,2013-01-31 19:48:00
2:54 PM,21.2,12.2,68,29.47,3.0,WSW,16.1,29.9,0.00,Snow,Light Snow,250,2013-01-31 19:54:00
3:12 PM,21.2,12.2,68,29.49,1.8,West,16.1,27.6,0.00,Snow,Light Snow,260,2013-01-31 20:12:00
3:34 PM,21.2,15.8,80,29.50,0.5,West,19.6,27.6,0.00,Snow,Snow,260,2013-01-31 20:34:00
3:47 PM,21.2,14.0,74,29.51,1.2,West,18.4,28.8,0.00,Snow,Light Snow,260,2013-01-31 20:47:00
3:56 PM,21.0,12.0,68,29.58,4.0,West,16.1,29.9,0.00,Snow,Light Snow,260,2013-01-31 20:56:00
4:18 PM,21.2,10.4,63,29.52,2.0,West,15.0,36.8,0.00,Snow,Light Snow,270,2013-01-31 21:18:00
4:26 PM,21.2,10.4,63,29.53,9.0,West,15.0,29.9,0.00,,Overcast,260,2013-01-31 21:26:00
4:41 PM,19.4,12.2,74,29.53,1.8,West,17.3,28.8,0.00,Snow,Light Snow,260,2013-01-31 21:41:00
4:46 PM,19.4,12.2,74,29.54,2.0,West,24.2,32.2,0.00,Snow,Light Snow,260,2013-01-31 21:46:00
4:49 PM,19.4,10.4,68,29.54,3.0,West,17.3,32.2,0.00,Snow,Light Snow,260,2013-01-31 21:49:00
4:56 PM,19.9,10.0,65,29.62,4.0,West,13.8,36.8,0.00,Snow,Light Snow,260,2013-01-31 21:56:00
5:56 PM,19.9,9.0,62,29.65,10.0,West,15.0,23.0,0.00,,Overcast,270,2013-01-31 22:56:00
6:11 PM,19.4,10.4,68,29.58,2.5,WSW,17.3,31.1,0.00,Snow,Light Snow,250,2013-01-31 23:11:00
6:17 PM,19.4,10.4,68,29.58,3.0,West,15.0,31.1,0.00,Snow,Light Snow,260,2013-01-31 23:17:00
6:26 PM,19.4,10.4,68,29.59,2.5,WSW,16.1,23.0,0.00,Snow,Light Snow,250,2013-01-31 23:26:00
6:34 PM,17.6,12.2,79,29.59,1.2,West,13.8,25.3,0.00,Snow,Light Snow,260,2013-01-31 23:34:00
6:41 PM,19.4,10.4,68,29.59,4.0,WSW,17.3,29.9,0.00,Snow,Light Snow,250,2013-01-31 23:41:00
6:56 PM,18.0,10.9,74,29.69,3.0,WSW,10.4,24.2,0.00,Snow,Light Snow,250,2013-01-31 23:56:00
7:39 PM,17.6,8.6,68,29.60,9.0,West,18.4,26.5,0.00,Snow,Light Snow,260,2013-02-01 00:39:00
7:56 PM,18.0,8.1,65,29.69,8.0,West,15.0,24.2,0.00,Snow,Light Snow,260,2013-02-01 00:56:00
9:29 PM,17.6,10.4,73,29.61,2.0,WSW,15.0,19.6,0.00,Snow,Light Snow,250,2013-02-01 02:29:00
9:43 PM,17.6,12.2,79,29.62,1.8,WSW,10.4,20.7,0.00,Snow,Light Snow,250,2013-02-01 02:43:00
9:56 PM,18.0,12.0,78,29.71,1.8,WSW,13.8,21.9,0.00,Snow,Light Snow,250,2013-02-01 02:56:00
10:06 PM,17.6,10.4,73,29.62,2.5,West,12.7,23.0,0.00,Snow,Light Snow,260,2013-02-01 03:06:00
10:23 PM,17.6,12.2,79,29.62,1.8,WSW,11.5,20.7,0.00,Snow,Light Snow,250,2013-02-01 03:23:00
10:29 PM,17.6,10.4,73,29.62,3.0,West,15.0,20.7,0.00,Snow,Light Snow,270,2013-02-01 03:29:00
10:56 PM,18.0,9.0,68,29.70,10.0,West,16.1,26.5,0.00,,Mostly Cloudy,260,2013-02-01 03:56:00
11:56 PM,18.0,7.0,62,29.72,10.0,West,13.8,20.7,0.00,,Mostly Cloudy,260,2013-02-01 04:56:00